NOAA-18
1 28654U 05018A 10237.70383718 .00000127 00000-0 95069-4 0 04548
2 28654 098.9535 183.7820 0013674 214.9924 145.0352 14.11381840271244
NOAA-19
1 33591U 09005A 10237.70707380 -.00000185 00000-0 -78481-4 0 06524
2 33591 098.7909 178.3603 0015167 091.7495 268.5415 14.11076178079719
HUBBLE
1 20580U 90037B 10238.12944327 .00000409 00000-0 18407-4 0 6343
2 20580 028.4677 143.2399 0003640 221.6409 138.3923 15.01021892915271
ISS
1 25544U 98067A 10238.83028510 .00011443 00000-0 92801-4 0 7761
2 25544 051.6453 229.1315 0007611 298.4323 130.7842 15.71273119674587
CO-58
1 28895U 05043F 10238.23310128 .00000060 00000-0 21909-4 0 6659
2 28895 098.0049 120.3534 0019096 066.8453 293.4740 14.59923853257203
FALCON
1 30776U 07006E 10238.66029448 .00000635 00000-0 48351-4 0 9000
2 30776 035.4348 336.4022 0001066 013.2516 346.8228 15.03781811190674
MAST
1 31126U 07012K 10238.57179781 .00000124 00000-0 38399-4 0 9478
2 31126 097.9323 276.9245 0095221 007.9568 352.3148 14.53613809178289
CAPE1
1 31130U 07012P 10237.65793534 .00000213 00000-0 59653-4 0 09698
2 31130 097.9339 273.3307 0103068 019.4341 341.0728 14.52213558177742
COMPASS
1 32787U 08021E 10238.66109067 .00000166 00000-0 27648-4 0 7595
2 32787 097.8889 302.4299 0016776 058.0344 302.2531 14.81945686125936
AAUSAT2
1 32788U 08021F 10237.64456081 .00000331 00000-0 48203-4 0 07510
2 32788 097.8889 301.5701 0016592 062.0672 298.2192 14.82092659125795
DO-64
1 32789U 08021G 10238.65853929 .00000509 00000-0 70263-4 0 7692
2 32789 097.8972 303.1267 0016534 058.2878 301.9959 14.82272690125940
CO-66
1 32791U 08021J 10237.14032631 .00000477 00000-0 67072-4 0 07527
2 32791 097.8919 300.9384 0017170 061.9043 298.3957 14.81720012125662
RS-30
1 32953U 08025A 10238.71839344 .00000010 00000-0 00000 0 0 9877
2 32953 082.5057 345.8182 0017828 310.9199 049.0334 12.43007448102504
TACSAT-3
1 35001U 09028A 10237.92207592 .00004274 00000-0 10122-3 0 03830
2 35001 040.4561 155.0297 0020491 171.6889 188.4273 15.42433977071406
PHARMSAT
1 35002U 09028B 10237.91819771 .00003821 00000-0 89535-4 0 3469
2 35002 040.4678 152.8263 0023554 173.9066 186.2053 15.42890950 71421
HAWKSAT1
1 35003U 09028C 10237.93239047 .00008840 00000-0 17603-3 0 03837
2 35003 040.4590 145.3319 0021493 194.2274 165.7997 15.46646624071511
CP6
1 35004U 09028D 10237.95140227 .00011169 00000-0 21299-3 0 03699
2 35004 040.4619 143.6918 0020736 197.9064 162.1045 15.47729921071525
AEROCUB3
1 35005U 09028E 10238.80122311 .00044611 00000-0 61190-3 0 4221
2 35005 040.4696 131.8709 0020482 229.7264 130.2227 15.56264430 71732
CASTOR
1 35694U 09038F 10230.44082147 .07179566 12689-4 99310-4 0 6559
2 35694 051.5930 222.0149 0004218 308.0851 053.0105 16.48877011 61107
METEOR-M
1 35865U 09049A 10238.71702756 .00000176 00000-0 10000-3 0 5970
2 35865 098.7525 291.9898 0002519 140.3948 219.7366 14.21831230 48749
RS-38
1 35869U 09049E 10238.68086089 .00000177 00000-0 10000-3 0 6099
2 35869 098.7515 291.9912 0004740 152.8299 207.3085 14.21987201 48745
